Warning: Javascript must be enabled to use all the features on this page!


Page Loading - Please Wait...

* We've detected you're using a mobile device. Find our Next Generation Station Page here.
Click to hideNews Bulletins

Peak Streamflow for the Nation

USGS 02396050 ETOWAH RIVER 2ND AVE AUX AT ROME, GA

Floyd County, Georgia
Hydrologic Unit Code 03150104
Latitude  34°14'45", Longitude  85°10'04" NAD27
Drainage area 1,820.00  square miles
Output formats
Table
Graph
Tab-separated file
peakfq (watstore) format
Reselect output format
Water
Year
Date Gage
Height
(feet)
Stream-
flow
(cfs)
1940 1940-08-14   14,400
1941 1941-07-07 17.701 13,200
1942 1942-03-22 28.001 27,000
1943 1942-12-30 31.001 29,000
1944 1944-03-30 29.801 25,200
1945 1945-04-26   12,000
1946 1946-01-09   36,900
1947 1947-01-21 35.701 28,900
1948 1948-02-10   22,200
1949 1948-11-30 35.801 35,700
1950 1950-03-14 26.901 16,6006
1951 1951-03-29   14,8006
1952 1952-03-23 26.701 23,0006
1953 1953-05-08   11,7006
1954 1954-01-16   15,0006
1955 1955-02-07 21.801 9,4306
1956 1956-03-17 19.701 11,4006
1957 1957-04-05 26.801 19,3006
1958 1957-11-19   10,5006
1959 1959-06-01   8,5806
1960 1960-02-01   8,6206
1961 1961-02-22   23,7006
1962 1961-12-12   20,7006
1963 1963-04-30 26.601 18,5006
1964 1964-03-26 31.601 29,5006
1965 1965-04-05   12,5006
1966 1966-03-04   18,0006
1967 1967-08-27   16,7006
1968 1968-01-10   16,5006
1969 1969-04-19   10,7006
1970 1970-03-20   13,2006
1971 1971-03-26   11,6006
1972 1972-01-11   17,7006
1973 1973-03-17   18,1006
1974 1974-04-05 27.701 21,7006
1975 1975-03-16   15,8006
1976 1976-03-31   24,2006
1977 1977-03-30   30,7006
1978 1978-01-26   15,6006
1979 1979-03-04   36,0006
1980 1980-04-14   26,4006
1981 1981-05-28   13,1006
1982 1982-02-04 30.971 30,1006
1983 1983-04-09 24.271 15,7006
1984 1983-12-07 25.291 19,1006
1985 1985-02-06 20.391 12,2006
1986 1985-12-05 11.831 8,4206
1987 1987-03-01 25.411 17,0006
1988 1988-01-20   9,4106
1989 1989-03-06   14,9006
1990 1990-03-17 35.231 33,8006
1991 1991-03-30 21.221 12,6006
?
  Peak Gage-Height Qualification Codes.
?
  Peak Streamflow Qualification Codes.